Hourly Weather Mostiska

Today, 4 August, Tuesday

Time Temperature Precipitation Wind Pressure Humidity
00:00 +18°C° 0 mm 2 mps 735 mmHg 80%
01:00 +18°C° 0 mm 2 mps 735 mmHg 80%
02:00 +18°C° 0 mm 2 mps 735 mmHg 80%
03:00 +18°C° 0 mm 2 mps 735 mmHg 80%
04:00 +18°C° 0 mm 3 mps 735 mmHg 79%
05:00 +18°C° 0 mm 3 mps 735 mmHg 78%
06:00 +19°C° 0 mm 3 mps 735 mmHg 77%
07:00 +20°C° 0 mm 3 mps 735 mmHg 75%
08:00 +21°C° 0 mm 4 mps 734 mmHg 73%
09:00 +23°C° 0 mm 4 mps 735 mmHg 69%
10:00 +25°C° 0 mm 4 mps 735 mmHg 66%
11:00 +27°C° 0 mm 5 mps 735 mmHg 63%
12:00 +28°C° 0 mm 4 mps 735 mmHg 62%
13:00 +28°C° 0 mm 4 mps 735 mmHg 60%
14:00 +29°C° 0 mm 4 mps 735 mmHg 59%
15:00 +29°C° 0.3 mm 3 mps 735 mmHg 61%
16:00 +29°C° 0.3 mm 3 mps 735 mmHg 62%
17:00 +29°C° 0.3 mm 3 mps 735 mmHg 64%
18:00 +27°C° 0.3 mm 2 mps 735 mmHg 70%
19:00 +25°C° 0.3 mm 2 mps 736 mmHg 75%
20:00 +24°C° 0.3 mm 2 mps 736 mmHg 81%
21:00 +21°C° 0.1 mm 2 mps 736 mmHg 86%
22:00 +20°C° 0.1 mm 3 mps 737 mmHg 90%
23:00 +19°C° 0.1 mm 3 mps 737 mmHg 95%

Tomorrow, 5 August, Wednesday

Time Temperature Precipitation Wind Pressure Humidity
00:00 +19°C° 0 mm 3 mps 738 mmHg 95%
01:00 +18°C° 0 mm 4 mps 738 mmHg 95%
02:00 +18°C° 0 mm 4 mps 738 mmHg 95%
03:00 +18°C° 0 mm 3 mps 739 mmHg 95%
04:00 +18°C° 0 mm 3 mps 739 mmHg 95%
05:00 +18°C° 0 mm 3 mps 739 mmHg 94%
06:00 +18°C° 0 mm 3 mps 740 mmHg 94%
07:00 +18°C° 0 mm 3 mps 740 mmHg 93%
08:00 +18°C° 0 mm 3 mps 740 mmHg 92%
09:00 +19°C° 0 mm 3 mps 740 mmHg 91%
10:00 +19°C° 0 mm 3 mps 741 mmHg 89%
11:00 +20°C° 0 mm 3 mps 741 mmHg 87%
12:00 +20°C° 0 mm 3 mps 741 mmHg 87%
13:00 +20°C° 0 mm 3 mps 741 mmHg 87%
14:00 +20°C° 0 mm 3 mps 741 mmHg 87%
15:00 +20°C° 0 mm 3 mps 741 mmHg 88%
16:00 +20°C° 0 mm 3 mps 741 mmHg 88%
17:00 +20°C° 0 mm 3 mps 741 mmHg 89%
18:00 +20°C° 0 mm 3 mps 742 mmHg 91%
19:00 +20°C° 0 mm 3 mps 742 mmHg 92%
20:00 +19°C° 0 mm 3 mps 742 mmHg 93%
21:00 +19°C° 0 mm 3 mps 742 mmHg 94%
22:00 +19°C° 0 mm 3 mps 743 mmHg 95%
23:00 +19°C° 0 mm 3 mps 743 mmHg 95%

Day after tomorrow, 6 August, Thursday

Time Temperature Precipitation Wind Pressure Humidity
00:00 +18°C° 0 mm 2 mps 743 mmHg 96%
01:00 +18°C° 0 mm 2 mps 743 mmHg 97%
02:00 +18°C° 0 mm 2 mps 743 mmHg 98%
03:00 +19°C° 0 mm 1 mps 743 mmHg 98%
04:00 +19°C° 0 mm 1 mps 743 mmHg 98%
05:00 +18°C° 0 mm 1 mps 743 mmHg 97%
06:00 +19°C° 0 mm 1 mps 744 mmHg 94%
07:00 +20°C° 0 mm 1 mps 744 mmHg 90%
08:00 +21°C° 0 mm 1 mps 744 mmHg 86%
09:00 +23°C° 0 mm 2 mps 744 mmHg 79%
10:00 +24°C° 0 mm 2 mps 744 mmHg 73%
11:00 +26°C° 0 mm 2 mps 745 mmHg 66%
12:00 +27°C° 0 mm 3 mps 745 mmHg 63%
13:00 +28°C° 0 mm 3 mps 744 mmHg 60%
14:00 +29°C° 0 mm 3 mps 744 mmHg 57%
15:00 +29°C° 0 mm 3 mps 744 mmHg 59%
16:00 +28°C° 0 mm 3 mps 744 mmHg 61%
17:00 +28°C° 0 mm 3 mps 744 mmHg 63%
18:00 +26°C° 0 mm 3 mps 744 mmHg 68%
19:00 +25°C° 0 mm 3 mps 744 mmHg 73%
20:00 +22°C° 0 mm 3 mps 744 mmHg 77%
21:00 +21°C° 0 mm 2 mps 745 mmHg 79%
22:00 +20°C° 0 mm 2 mps 745 mmHg 80%
23:00 +19°C° 0 mm 2 mps 745 mmHg 82%

7 August, Friday

Time Temperature Precipitation Wind Pressure Humidity
00:00 +20°C° 0 mm 1 mps 745 mmHg 84%
01:00 +20°C° 0 mm 1 mps 745 mmHg 85%
02:00 +19°C° 0 mm 1 mps 745 mmHg 87%
03:00 +19°C° 0 mm 1 mps 745 mmHg 88%
04:00 +19°C° 0 mm 1 mps 745 mmHg 89%
05:00 +18°C° 0 mm 1 mps 745 mmHg 90%
06:00 +20°C° 0 mm 1 mps 745 mmHg 86%
07:00 +21°C° 0 mm 1 mps 746 mmHg 82%
08:00 +23°C° 0 mm 1 mps 746 mmHg 78%
09:00 +24°C° 0 mm 2 mps 746 mmHg 73%
10:00 +26°C° 0 mm 2 mps 746 mmHg 67%
11:00 +27°C° 0 mm 3 mps 746 mmHg 62%
12:00 +28°C° 0 mm 3 mps 746 mmHg 60%
13:00 +28°C° 0 mm 4 mps 745 mmHg 58%
14:00 +29°C° 0 mm 4 mps 745 mmHg 56%
15:00 +29°C° 0 mm 4 mps 745 mmHg 59%
16:00 +28°C° 0 mm 3 mps 745 mmHg 61%
17:00 +28°C° 0 mm 3 mps 745 mmHg 63%
18:00 +27°C° 0 mm 3 mps 744 mmHg 69%
19:00 +25°C° 0 mm 3 mps 744 mmHg 74%
20:00 +23°C° 0 mm 2 mps 744 mmHg 80%
21:00 +23°C° 0 mm 2 mps 744 mmHg 83%
22:00 +21°C° 0 mm 2 mps 744 mmHg 87%
23:00 +20°C° 0 mm 2 mps 745 mmHg 90%

8 August, Saturday

Time Temperature Precipitation Wind Pressure Humidity
00:00 +19°C° 0 mm 2 mps 745 mmHg 91%
01:00 +19°C° 0 mm 2 mps 744 mmHg 93%
02:00 +19°C° 0 mm 2 mps 744 mmHg 94%
03:00 +18°C° 0 mm 2 mps 744 mmHg 95%
04:00 +18°C° 0 mm 2 mps 744 mmHg 95%
05:00 +18°C° 0 mm 2 mps 744 mmHg 96%
06:00 +19°C° 0 mm 2 mps 744 mmHg 92%
07:00 +20°C° 0 mm 2 mps 744 mmHg 88%
08:00 +21°C° 0 mm 3 mps 744 mmHg 84%
09:00 +22°C° 0 mm 3 mps 744 mmHg 79%
10:00 +25°C° 0 mm 4 mps 744 mmHg 74%
11:00 +26°C° 0 mm 4 mps 744 mmHg 68%
12:00 +26°C° 0 mm 4 mps 744 mmHg 66%
13:00 +27°C° 0 mm 4 mps 744 mmHg 64%
14:00 +27°C° 0 mm 4 mps 743 mmHg 62%
15:00 +27°C° 0 mm 4 mps 743 mmHg 63%
16:00 +27°C° 0 mm 4 mps 743 mmHg 64%
17:00 +26°C° 0 mm 4 mps 743 mmHg 65%
18:00 +25°C° 0 mm 4 mps 743 mmHg 72%
19:00 +22°C° 0 mm 3 mps 743 mmHg 78%
20:00 +20°C° 0 mm 3 mps 743 mmHg 84%
21:00 +20°C° 0 mm 3 mps 743 mmHg 85%
22:00 +19°C° 0 mm 2 mps 743 mmHg 87%
23:00 +18°C° 0 mm 2 mps 743 mmHg 88%

9 August, Sunday

Time Temperature Precipitation Wind Pressure Humidity
00:00 +17°C° 0 mm 2 mps 742 mmHg 89%
01:00 +17°C° 0 mm 2 mps 742 mmHg 90%
02:00 +16°C° 0 mm 2 mps 742 mmHg 91%
03:00 +16°C° 0 mm 1 mps 742 mmHg 92%
04:00 +16°C° 0 mm 1 mps 742 mmHg 92%
05:00 +15°C° 0 mm 1 mps 742 mmHg 93%
06:00 +18°C° 0 mm 1 mps 742 mmHg 89%
07:00 +18°C° 0 mm 2 mps 742 mmHg 85%
08:00 +19°C° 0 mm 2 mps 742 mmHg 80%
09:00 +21°C° 0 mm 2 mps 742 mmHg 75%
10:00 +22°C° 0 mm 3 mps 742 mmHg 70%
11:00 +24°C° 0 mm 3 mps 742 mmHg 65%
12:00 +25°C° 0 mm 3 mps 742 mmHg 62%
13:00 +26°C° 0 mm 3 mps 741 mmHg 60%
14:00 +26°C° 0 mm 3 mps 741 mmHg 58%
15:00 +26°C° 0 mm 3 mps 741 mmHg 59%
16:00 +26°C° 0 mm 3 mps 741 mmHg 61%
17:00 +26°C° 0 mm 3 mps 741 mmHg 62%
18:00 +24°C° 0 mm 3 mps 741 mmHg 69%
19:00 +22°C° 0 mm 3 mps 741 mmHg 75%
20:00 +20°C° 0 mm 2 mps 741 mmHg 82%
21:00 +19°C° 0 mm 2 mps 741 mmHg 85%
22:00 +19°C° 0 mm 2 mps 741 mmHg 88%
23:00 +18°C° 0 mm 2 mps 741 mmHg 91%
Show more